Flag for Brazil Weather past 2 weeks in Itabuna, Bahia, Brazil

Now
77 °F

Passing clouds.


Feels Like: 79 °F
Forecast: 66 / 82 °F
Wind: 5 mph from Southeast

Location: Salvador Aeroporto

Current Time: Jul 28, 2015 at 5:22:40 PM

Latest Report: Jul 28, 2015 at 5:00 PM


Visibility: N/A

Pressure: 30.04 "Hg

Humidity: 65%

Dew point: 64 °F

Location of ItabunaLocation

Historic Weather in Itabuna — Graph

°F

Itabuna temperature yesterday

Maximum temperature yesterday: 81 °F (at 10:00 AM)
Minimum temperature yesterday: 75 °F (at 12:00 AM)
Average temperature yesterday: 77 °F

Past Weeks' High & Low Weather Summary

 TemperatureHumidityPressure
High82 °F (Jul 14, 11:00 AM)100% (Jul 15, 4:00 AM)30.15 "Hg (Jul 15, 4:00 AM)
Low37 °F (Jul 15, 4:00 AM)51% (Jul 18, 10:00 AM)30.01 "Hg (Jul 13, 4:00 PM)
Average76 °F72%30.08 "Hg
* Reported Jul 13 4:00 PM — Jul 28 4:00 PM, Itabuna, Weather by CustomWeather, © 2015

Note: Actual official high and low records may vary slightly from our data, if they occured in-between our weather recording intervals... More about our weather records

Advertising

Itabuna weather history for previous 24 hours

 ConditionsComfort  
Time TempWeatherWind HumidityBarometerVisibility
4:00 PM
Tue, Jul 28
81 °FPassing clouds.12 mph58%30.04 "HgN/A
3:00 PM81 °FPassing clouds.8 mph62%30.04 "HgN/A
2:00 PM81 °FScattered clouds.10 mph62%30.04 "HgN/A
1:00 PM81 °FScattered clouds.12 mph66%30.07 "HgN/A
12:00 PM81 °FScattered clouds.12 mph66%30.09 "HgN/A
11:00 AM81 °FScattered clouds.9 mph66%30.09 "HgN/A
10:00 AM81 °FScattered clouds.10 mph66%30.09 "HgN/A
9:00 AM81 °FScattered clouds.6 mph70%30.09 "HgN/A
8:00 AM77 °FScattered clouds.2 mph79%30.09 "HgN/A
7:00 AM72 °FScattered clouds.2 mph88%30.07 "HgN/A
6:00 AM73 °FBroken clouds.3 mph78%30.04 "HgN/A
5:00 AM73 °FPassing clouds.2 mph78%30.04 "HgN/A
4:00 AM73 °FPassing clouds.6 mph78%30.04 "HgN/A
3:00 AM75 °FPassing clouds.6 mph74%30.04 "HgN/A
2:00 AM75 °FPassing clouds.6 mph74%30.04 "HgN/A
1:00 AM77 °FPassing clouds.10 mph74%30.07 "HgN/A
12:00 AM77 °FPassing clouds.9 mph74%30.07 "HgN/A
11:00 PM
Mon, Jul 27
77 °FPassing clouds.9 mph69%30.07 "HgN/A
10:00 PM77 °FPassing clouds.7 mph69%30.07 "HgN/A
9:00 PM75 °FPassing clouds.8 mph78%30.07 "HgN/A
8:00 PM75 °FPassing clouds.10 mph78%30.07 "HgN/A
7:00 PM75 °FPassing clouds.12 mph78%30.04 "HgN/A
6:00 PM75 °FPassing clouds.6 mph78%30.01 "HgN/A
5:00 PM77 °FScattered clouds.9 mph74%30.01 "HgN/A
Weather by CustomWeather, © 2015

See weather overviewHow to use our weather pages